This is the latest recevied weather packets stored in our database for station/object KB9GXK. If no packets are shown the sender has not sent any weather packets the latest 10 day(s).
| Time | Temp. | Humidity | Pressure | Rain* | Wind** | Luminosity | Snow |
|---|---|---|---|---|---|---|---|
| 1777472910 | 8.33° C | 83% | 1014.5 hPa | 0 mm | - | 104 W/m² | - |
| 1777472606 | 8.33° C | 82% | 1014.3 hPa | 0 mm | - | 127 W/m² | - |
| 1777472303 | 8.33° C | 83% | 1014.5 hPa | 0 mm | - | 174 W/m² | - |
| 1777471696 | 8.33° C | 84% | 1014.5 hPa | 0 mm | - | 167 W/m² | - |
| 1777471393 | 8.33° C | 84% | 1014.4 hPa | 0 mm | - | 139 W/m² | - |
| 1777469875 | 8.33° C | 86% | 1014.3 hPa | 0 mm | - | 113 W/m² | - |
| 1777469571 | 7.78° C | 86% | 1014.2 hPa | 0 mm | - | 79 W/m² | - |
| 1777469266 | 7.78° C | 86% | 1014.1 hPa | 0 mm | - | 81 W/m² | - |
| 1777468961 | 7.78° C | 86% | 1014.1 hPa | 0 mm | - | 65 W/m² | - |
| 1777468657 | 7.78° C | 85% | 1014.3 hPa | 0 mm | - | 37 W/m² | - |
| 1777468354 | 7.78° C | 85% | 1014.5 hPa | 0 mm | - | 35 W/m² | - |
| 1777468050 | 8.33° C | 85% | 1014.4 hPa | 0 mm | - | 26 W/m² | - |
| 1777467746 | 8.33° C | 85% | 1014.1 hPa | 0 mm | - | 22 W/m² | - |
| 1777467441 | 8.33° C | 85% | 1014.1 hPa | 0 mm | - | 22 W/m² | - |
| 1777467137 | 7.78° C | 85% | 1014.1 hPa | 0 mm | - | 19 W/m² | - |
| 1777466835 | 8.33° C | 85% | 1014.1 hPa | 0 mm | - | 16 W/m² | - |
| 1777466229 | 8.33° C | 85% | 1014 hPa | 0 mm | - | 13 W/m² | - |
| 1777465924 | 8.33° C | 84% | 1014.1 hPa | 0 mm | - | 13 W/m² | - |
| 1777465620 | 7.78° C | 84% | 1014.2 hPa | 0 mm | - | 18 W/m² | - |
| 1777465316 | 8.33° C | 84% | 1014.1 hPa | 0 mm | - | 11 W/m² | - |
| 1777464700 | 8.33° C | 84% | 1014.3 hPa | 0 mm | - | 11 W/m² | - |
| 1777464397 | 7.78° C | 84% | 1014.2 hPa | 0 mm | - | 8 W/m² | - |
| 1777462570 | 8.33° C | 83% | 1014.1 hPa | 0 mm | - | 5 W/m² | - |
| 1777462266 | 8.33° C | 82% | 1014 hPa | 0 mm | - | 7 W/m² | - |
| 1777461659 | 8.33° C | 81% | 1014.2 hPa | 0 mm | - | 4 W/m² | - |
* Rain latest hour (hover to see other rain measurements)
** Current wind speed in m/s (hover to see current wind gust speed)